Satellite: RS-30
Catalog number: 32953
Epoch time:      09357.82324765
Element set:    0483
Inclination:      082.5015 deg
RA of node:       138.7208 deg
Eccentricity:    0.0019625
Arg of perigee:   124.4655 deg
Mean anomaly:     235.8280 deg
Mean motion:   12.43003224 rev/day
Decay rate:        1.0e-07 rev/day^2
Epoch rev:           07195
Checksum:              284

Satellite: TACSAT-3
Catalog number: 35001
Epoch time:      09358.95719122
Element set:     175
Inclination:      040.4545 deg
RA of node:       179.1366 deg
Eccentricity:    0.0021736
Arg of perigee:   142.6580 deg
Mean anomaly:     217.5750 deg
Mean motion:   15.39841612 rev/day
Decay rate:      3.173e-05 rev/day^2
Epoch rev:            3375
Checksum:              294

Satellite: PHARMSAT
Catalog number: 35002
Epoch time:      09357.94325595
Element set:    0168
Inclination:      040.4666 deg
RA of node:       183.9795 deg
Eccentricity:    0.0024787
Arg of perigee:   140.0282 deg
Mean anomaly:     220.2363 deg
Mean motion:   15.40532422 rev/day
Decay rate:      2.962e-05 rev/day^2
Epoch rev:           03360
Checksum:              289

Satellite: HAWKSAT1
Catalog number: 35003
Epoch time:      09357.90331526
Element set:    0174
Inclination:      040.4609 deg
RA of node:       182.6036 deg
Eccentricity:    0.0023783
Arg of perigee:   145.0377 deg
Mean anomaly:     215.2006 deg
Mean motion:   15.41811125 rev/day
Decay rate:      6.144e-05 rev/day^2
Epoch rev:           03362
Checksum:              258

Satellite: CP6
Catalog number: 35004
Epoch time:      09357.89343831
Element set:    0168
Inclination:      040.4614 deg
RA of node:       182.5352 deg
Eccentricity:    0.0023061
Arg of perigee:   145.2609 deg
Mean anomaly:     214.9711 deg
Mean motion:   15.42038031 rev/day
Decay rate:      7.214e-05 rev/day^2
Epoch rev:           03361
Checksum:              267

Satellite: AEROCUB3
Catalog number: 35005
Epoch time:      09358.89354245
Element set:     173
Inclination:      040.4719 deg
RA of node:       177.1638 deg
Eccentricity:    0.0023133
Arg of perigee:   149.0768 deg
Mean anomaly:     211.1418 deg
Mean motion:   15.41952723 rev/day
Decay rate:     1.1812e-04 rev/day^2
Epoch rev:            3376
Checksum:              293

Satellite: DRAGNSAT
Catalog number: 35690
Epoch time:      09357.58592141
Element set:     148
Inclination:      051.6387 deg
RA of node:       042.4374 deg
Eccentricity:    0.0003563
Arg of perigee:   327.7842 deg
Mean anomaly:     032.2955 deg
Mean motion:   15.90930755 rev/day
Decay rate:     6.1231e-04 rev/day^2
Epoch rev:            2316
Checksum:              301

Satellite: POLLUX
Catalog number: 35693
Epoch time:      09357.60320151
Element set:     156
Inclination:      051.6384 deg
RA of node:       043.3293 deg
Eccentricity:    0.0000926
Arg of perigee:   269.9588 deg
Mean anomaly:     090.1263 deg
Mean motion:   15.89326541 rev/day
Decay rate:     5.4012e-04 rev/day^2
Epoch rev:            2312
Checksum:              287

Satellite: CASTOR
Catalog number: 35694
Epoch time:      09357.58956553
Element set:     137
Inclination:      051.6408 deg
RA of node:       045.5564 deg
Eccentricity:    0.0002313
Arg of perigee:   224.8731 deg
Mean anomaly:     135.2108 deg
Mean motion:   15.84461577 rev/day
Decay rate:     2.1765e-04 rev/day^2
Epoch rev:            2309
Checksum:              307

Satellite: METEOR-M
Catalog number: 35865
Epoch time:      09357.62725017
Element set:      84
Inclination:      098.7854 deg
RA of node:       047.4614 deg
Eccentricity:    0.0002740
Arg of perigee:   137.6542 deg
Mean anomaly:     222.4803 deg
Mean motion:   14.21828393 rev/day
Decay rate:       1.76e-06 rev/day^2
Epoch rev:            1377
Checksum:              305

/EX





More information about the Keps mailing list